Tracking 30995 objects as of 5-Jul-2025
HD Live streaming from Space Station
objects crossing your sky now

BREEZE M DEB (TANK)

Track BREEZE M DEB (TANK) now!
10-day predictions


NORAD ID: 41583
Int'l Code: 2016-035C
Perigee: 374.7 km
Apogee: 13,811.5 km
Inclination: 50.7 °
Period: 259.1 minutes
Semi major axis: 13464 km
RCS: Unknown
Launch date: June 9, 2016
Source: Commonwealth of Independent States (former USSR) (CIS)
Launch site: ()

Note: This is SATELLITE DEBRIS
Your satellite tracking list
Your tracking list is empty




NASA's NSSDC Master Catalog

Two Line Element Set (TLE):
1 41583U 16035C   25186.38902132  .00000975  00000-0  38454-3 0  9994
2 41583  50.7448 217.0090 4989832 126.6846 290.3423  5.55695169182551
Source of the keplerian elements: AFSPC